Regional Weather Roundup
Issued by NWS Northern Indiana

Home | Current Version | Previous Version | Text Only | Print | Product List | Glossary On
Versions: 1 2 3 4 5 6 7 8 9 10 11 12 13 14 15 16 17 18 19 20 21 22 23 24 25 26 27 28 29 30 31 32 33 34 35 36 37 38 39 40 41 42 43 44 45 46 47 48 49 50
000
ASUS43 KIWX 200710
RWRIWX

KIWX WEATHER ROUNDUP
NATIONAL WEATHER SERVICE NORTHERN INDIANA
300 AM EDT THU JUN 20 2019

NOTE: "FAIR" INDICATES FEW OR NO CLOUDS BELOW 12,000 FEET WITH NO
SIGNIFICANT WEATHER AND/OR OBSTRUCTIONS TO VISIBILITY.

* THESE STATIONS ARE NOT UNDER NWS QUALITY CONTROL. THEY ALSO MAY NOT
  REPORT WEATHER SUCH AS PRECIPITATION OR FOG.

INZ001>027-200800-
NORTHERN INDIANA

CITY           SKY/WX    TMP DP  RH WIND       PRES   REMARKS
GARY*          RAIN      57  57 100 N14       29.59F
VALPARAISO     LGT RAIN  60  57  89 N8        29.56F
MICHIGAN CITY* RAIN     N/A N/A N/A NE3       29.57F
LAPORTE*       LGT RAIN N/A N/A N/A N7        29.56F
KNOX*          CLOUDY    63  63 100 MISG      29.54F
SOUTH BEND     RAIN      66  65  96 NE5       29.57F FOG
GOSHEN         LGT RAIN  68  65  90 SE5       29.57F FOG
MONTICELLO*    CLOUDY    68  66  94 SW5       29.55S
LOGANSPORT*    CLOUDY    68  68 100 S6        29.57F FOG
ROCHESTER*     CLOUDY    68  64  88 SE6       29.57F
WARSAW*        LGT RAIN  64  64 100 CALM      29.58F
KENDALLVILLE*  CLOUDY    66  66 100 SE5       29.60F
AUBURN*        MOCLDY    66  66 100 CALM      29.60F FOG
FORT WAYNE     CLOUDY    68  66  93 E5        29.57F FOG
HUNTINGTON*    LGT RAIN  66  65  96 CALM      29.57F
PERU/GRISSOM   MOCLDY    68  68 100 S7        29.56F

$$
INZ028>050-200800-
CENTRAL INDIANA

CITY           SKY/WX    TMP DP  RH WIND       PRES   REMARKS
LAFAYETTE      CLOUDY    68  67  96 SW3       29.55S
KOKOMO*        CLOUDY    69  69 100 S8        29.57F
MUNCIE*        LGT RAIN  71  67  87 S6        29.58F
INDIANAPOLIS   MOCLDY    69  68  96 S8        29.58F

$$
MIZ043>046-050>051-056>058-064>065-071>073-077>080-200800-
SOUTHWEST LOWER MICHIGAN

CITY           SKY/WX    TMP DP  RH WIND       PRES   REMARKS
BATTLE CREEK   LGT RAIN  66  65  96 E7        29.61F FOG
BENTON HARBOR  RAIN      65  63  93 NE7       29.58F FOG
COLDWATER*     CLOUDY    66  66 100 E5        29.61S FOG
HILLSDALE*     CLOUDY    64  61  91 E5        29.61F
HOLLAND        LGT RAIN  63  61  93 E7        29.62F
GRAND RAPIDS   HVY RAIN  62  60  93 NE13      29.64F FOG
KALAMAZOO      RAIN      67  65  93 E5        29.59F FOG
STURGIS*       RAIN      69  67  95 E5        29.58F
THREE RIVERS*  LGT RAIN  69  68  96 CALM      29.59F

$$
OHZ001>008-015>018-024>025-200800-
NORTHWEST OHIO

CITY           SKY/WX    TMP DP  RH WIND       PRES   REMARKS
WAUSEON*       CLOUDY    66  66 100 CALM      29.61S
DEFIANCE       CLOUDY    68  65  90 CALM      29.59F FOG
FINDLAY        LGT RAIN  69  65  86 CALM      29.59F
OTTAWA*        MOCLDY    64  63  94 E3        29.61F
TOLEDO EXPRESS CLOUDY    66  63  90 NE3       29.61S
LIMA           CLOUDY    68  65  90 CALM      29.60F

$$
AND FOR LAKE MICHIGAN COASTAL AND OPEN LAKE BUOY OBSERVATIONS

STATION/POSITION TEMP    WIND        PRES    VSBY  WAVE
                 AIR SEA DIR/SP/G                  HT/PER
                 (F)     (DEG/KT/KT) (MB)    (MI)  (FT/S)
CALUMET HARBOR    54     330/ 11/ 17 1002.3
MICHIGAN CITY     59      30/ 14/ 15   N/A
BURNS HARBOR      55      40/  6/  8 1002.4F
SAINT JOSEPH      64      50/  3/  4 1002.7
SOUTH LAKE BUOY   48 45  360/ 12/ 14 1003.8F         2/ 4
4 MI NW BRIDGMAN  62 61   20/ 12/ 16 1001.4          2/ 5
MICHIGAN CITY     59 61   10/ 16/ 19   N/A           4/ 5

$$
&&




USA.gov is the U.S. government's official web portal to all federal, state and local government web resources and services.